[[{"header":{"parameterUnit":"m.s-1","parameterCategory":2,"la1":30.2991,"la2":30.254,"lo1":-89.0895,"lo2":-89.0444,"dy":0.0017,"dx":0.0017,"nx":28,"ny":28,"refTime":"2024-05-21T09:00:00:Z","depth":"0","parameterNumber":2,"parameterNumberName":"U-component_of_CURRENTS"},"data":[0,0,0,0,0,0,0,0,0,0,0,0,0,0,0,0,0,0,0,0,0,0,0,0,0,0,0,0,0,0,0,0,0,0,0,0,0,0,0,0,0,0,0,0,0,0,0,0,0,0,0,0,0,0,0,0,0,0,0.1994,0.1994,0,0.1989,0.1989,0.1989,0.1949,0.1948,0.1947,0.1947,0.2011,0.2014,0.2016,0,0,0,0,0,0,0,0,0,0,0,0,0,0.1973,0.1973,0.1994,0.1994,0.1994,0.1989,0.1989,0.1989,0.1949,0.1948,0.1947,0.1946,0.2011,0.2014,0.2017,0,0,0,0,0,0,0,0,0,0,0,0,0,0.1976,0.1973,0.1994,0.1974,0.1973,0.1989,0.1989,0.1989,0.195,0.1948,0.1947,0.1946,0.201,0.2013,0.2017,0.2068,0,0,0.2029,0.2031,0,0,0,0,0,0,0,0,0.1975,0.1976,0.1977,0.1976,0.1974,0.1969,0.2005,0.2019,0.195,0.1958,0.1947,0.1945,0.2005,0.2009,0.2009,0.2071,0.2074,0.2029,0.2032,0.2033,0.2034,0,0,0,0,0,0,0,0.1975,0.1976,0.1991,0.1977,0.1975,0.1967,0.1966,0.2007,0.199,0.1957,0.1954,0.1955,0.2005,0.2006,0.2011,0.2075,0.2029,0.2033,0.2035,0.2036,0.2168,0.2169,0,0,0,0,0,0,0.1979,0.1976,0.1992,0.1991,0.1972,0.1968,0.1967,0.1971,0.1988,0.1989,0.1956,0.1953,0.2,0.2006,0.2013,0.2052,0.2033,0.2037,0.2039,0.2166,0.2168,0.2169,0,0,0,0,0,0,0.1979,0.1981,0.1992,0.1984,0.1985,0.197,0.1976,0.1972,0.1974,0.1987,0.1988,0.1961,0.1999,0.2008,0.2052,0.2055,0.2039,0.2042,0.2165,0.2167,0.2168,0.2146,0,0,0,0,0,0,0.1978,0.1981,0.1997,0.1984,0.1985,0.2026,0.1977,0.1973,0.1977,0.1973,0.1993,0.1996,0.1999,0.2046,0.2056,0.206,0.2045,0.2164,0.2166,0.2168,0.2145,0.2147,0.2148,0,0,0,0,0,0.1977,0.2019,0.1998,0.2,0.2004,0.2028,0.2029,0.2012,0.1979,0.2003,0.1998,0.1996,0.2066,0.2051,0.2062,0.2067,0.2162,0.2165,0.2168,0.2144,0.2146,0.2148,0,0,0,0,0,0,0.2029,0.2018,0.1995,0.2032,0.2034,0.2022,0.2048,0.2021,0.2033,0.2029,0.202,0.2026,0.2061,0.2081,0.2064,0.2114,0.2112,0.2117,0.209,0.2092,0.2094,0.2087,0.2048,0,0,0,0,0,0.2044,0.2064,0.205,0.2082,0.2086,0.2062,0.2069,0.2055,0.2058,0.206,0.2052,0.2062,0.2083,0.21,0.2125,0.2166,0.2199,0.2177,0.2178,0.2179,0.2183,0.2228,0.2234,0.2178,0.2178,0.2178,0,0,0.207,0.2069,0.208,0.2093,0.209,0.2096,0.2064,0.2089,0.2076,0.2071,0.2062,0.2073,0.2097,0.2125,0.2143,0.2141,0.2218,0.2182,0.2182,0.2186,0.2232,0.2237,0.2242,0.2179,0.2179,0.2179,0,0,0.2121,0.2135,0.2152,0.216,0.2163,0.215,0.2156,0.2137,0.2119,0.2129,0.2104,0.2118,0.2151,0.215,0.2159,0.2195,0.2223,0.2205,0.2207,0.2251,0.2255,0.226,0.2327,0.2337,0.2205,0.2205,0.2205,0,0.2147,0.216,0.2168,0.2182,0.2187,0.2169,0.2179,0.2168,0.2155,0.2147,0.2134,0.2153,0.2159,0.2184,0.2176,0.2195,0.2236,0.2191,0.2251,0.2255,0.226,0.2328,0.234,0.2204,0.2205,0.2205,0.2205,0,0.2191,0.2202,0.2225,0.2218,0.2237,0.2258,0.2236,0.2233,0.2203,0.2179,0.2193,0.2196,0.2213,0.2205,0.2196,0.2227,0.2253,0.2244,0.2239,0.2264,0.2335,0.2348,0.2203,0.2204,0.2204,0.2204,0,0,0.2224,0.2244,0.2247,0.2239,0.2256,0.2267,0.2269,0.226,0.2254,0.2238,0.2246,0.2237,0.2235,0.2247,0.2239,0.2252,0.2307,0.2256,0.2258,0.2311,0.2432,0.2366,0.2374,0.2308,0.2309,0.2311,0.2474,0,0.2238,0.226,0.2273,0.2285,0.2286,0.2291,0.2294,0.2291,0.2283,0.2292,0.2287,0.2308,0.2255,0.2277,0.2278,0.2314,0.2337,0.2265,0.2411,0.2416,0.2343,0.2384,0.2227,0.2351,0.2487,0.2489,0.249,0,0.2248,0.226,0.2278,0.229,0.2296,0.2307,0.232,0.2324,0.2342,0.2347,0.2367,0.2378,0.2409,0.2362,0.2428,0.2391,0.2407,0.2418,0.2426,0.2377,0.2371,0.2346,0.2369,0.2306,0.251,0.2508,0.2507,0,0.2234,0.2254,0.2265,0.2273,0.2295,0.2304,0.2318,0.2336,0.2342,0.24,0.2436,0.2472,0.2512,0.2539,0.2544,0.251,0.2621,0.2592,0.2551,0.2549,0.245,0.2434,0.2412,0.2635,0.2635,0.2634,0.2634,0,0.2234,0.2234,0.2254,0.2263,0.227,0.2301,0.2321,0.2341,0.2392,0.2417,0.2469,0.2506,0.2552,0.2607,0.2608,0.2626,0.2687,0.2566,0.2582,0.244,0.2422,0.2389,0.2371,0.2641,0.2639,0.2638,0.2637,0,0.2209,0.2227,0.223,0.2258,0.2262,0.2271,0.231,0.2329,0.2393,0.2444,0.2479,0.2561,0.2647,0.2688,0.2756,0.2706,0.2646,0.2721,0.2558,0.2549,0.2419,0.2405,0.2309,0.2238,0.2724,0.2724,0.2723,0,0.2198,0.2199,0.2218,0.2223,0.2234,0.2249,0.2264,0.2316,0.2342,0.2455,0.2484,0.2599,0.2642,0.2742,0.2698,0.2734,0.2637,0.2595,0.2471,0.2397,0.2397,0.2275,0.2214,0.236,0.2356,0.2353,0.2351,0,0.2178,0.2185,0.2197,0.2202,0.2212,0.2214,0.2241,0.2254,0.2329,0.238,0.2448,0.2506,0.2593,0.2546,0.2588,0.2571,0.2434,0.2533,0.2496,0.2137,0.1966,0.191,0.2298,0.2325,0.2328,0.2329,0.2331,0.2332,0.216,0.2158,0.2177,0.2166,0.2179,0.2169,0.2145,0.2186,0.2209,0.2253,0.2354,0.2386,0.2392,0.2416,0.2393,0.2246,0.2256,0.2142,0.2152,0.205,0.1893,0.2227,0.2233,0.2235,0.2237,0.2238,0.2239,0,0.2119,0.2125,0.2136,0.2119,0.21,0.2119,0.2116,0.208,0.2066,0.2139,0.2174,0.2149,0.2108,0.2104,0.1979,0.187,0.1749,0.1824,0.1623,0.1599,0.194,0.1832,0.1701,0.1701,0.1701,0.1701,0.1701,0.1701,0.2103,0.209,0.2086,0.2031,0.2016,0.1956,0.1927,0.1893,0.1909,0.1866,0.1836,0.1866,0.1882,0.1794,0.166,0.1615,0.1478,0.136,0.142,0.1672,0.1702,0.173,0.1623,0.145,0.1449,0.0942,0.0939,0.0936]},{"header":{"parameterUnit":"m.s-1","parameterCategory":2,"la1":30.2991,"la2":30.254,"lo1":-89.0895,"lo2":-89.0444,"dy":0.0017,"dx":0.0017,"nx":28,"ny":28,"refTime":"2024-05-21T09:00:00:Z","depth":"0","parameterNumber":3,"parameterNumberName":"V-component_of_CURRENTS"},"data":[0,0,0,0,0,0,0,0,0,0,0,0,0,0,0,0,0,0,0,0,0,0,0,0,0,0,0,0,0,0,0,0,0,0,0,0,0,0,0,0,0,0,0,0,0,0,0,0,0,0,0,0,0,0,0,0,0,0,0.0226,0.0227,0,0.0242,0.0242,0.0242,0.0227,0.0226,0.0226,0.0225,0.0181,0.018,0.0179,0,0,0,0,0,0,0,0,0,0,0,0,0,0.0176,0.0177,0.0226,0.0227,0.0227,0.0242,0.0242,0.0242,0.0227,0.0226,0.0226,0.0225,0.0181,0.018,0.0179,0,0,0,0,0,0,0,0,0,0,0,0,0,0.0195,0.0178,0.0226,0.0222,0.0222,0.0242,0.0242,0.0242,0.0227,0.0226,0.0226,0.0225,0.0181,0.018,0.0179,0.0188,0,0,0.0176,0.0175,0,0,0,0,0,0,0,0,0.0194,0.0196,0.0222,0.0222,0.0222,0.0232,0.0208,0.0221,0.0227,0.0224,0.0225,0.0224,0.0193,0.0191,0.0196,0.0186,0.0184,0.0176,0.0175,0.0175,0.0174,0,0,0,0,0,0,0,0.0192,0.0196,0.0232,0.0223,0.0223,0.0216,0.0218,0.021,0.0211,0.0224,0.0224,0.0227,0.0193,0.0197,0.0194,0.0183,0.0176,0.0175,0.0174,0.0174,0.0161,0.0162,0,0,0,0,0,0,0.0194,0.0195,0.0231,0.0232,0.0207,0.0218,0.022,0.0229,0.0213,0.021,0.0227,0.0226,0.0199,0.0196,0.0193,0.02,0.0175,0.0174,0.0173,0.0161,0.0161,0.0162,0,0,0,0,0,0,0.0193,0.0197,0.023,0.0214,0.0218,0.022,0.023,0.023,0.0234,0.0216,0.0212,0.0232,0.0198,0.0194,0.0189,0.0198,0.0173,0.0172,0.0161,0.0161,0.0161,0.0216,0,0,0,0,0,0,0.0191,0.0197,0.0204,0.0214,0.0219,0.0246,0.0231,0.0231,0.0237,0.0236,0.0218,0.0213,0.0197,0.0191,0.0188,0.0196,0.0171,0.016,0.0161,0.0161,0.0214,0.0218,0.0222,0,0,0,0,0,0.019,0.0207,0.0205,0.0209,0.0229,0.0247,0.0249,0.0247,0.0238,0.0246,0.0233,0.0214,0.0192,0.0191,0.0187,0.0195,0.016,0.0161,0.0161,0.0212,0.0218,0.0222,0,0,0,0,0,0,0.019,0.0208,0.0205,0.0227,0.0237,0.0245,0.0255,0.0251,0.0249,0.0244,0.0223,0.0218,0.0215,0.0198,0.0197,0.0192,0.0171,0.0171,0.0211,0.0216,0.022,0.0232,0.017,0,0,0,0,0,0.0194,0.0212,0.0223,0.0241,0.0247,0.0251,0.0257,0.0256,0.0256,0.0254,0.0241,0.0225,0.0217,0.021,0.0199,0.02,0.0191,0.0201,0.0205,0.0208,0.0216,0.0215,0.022,0.0164,0.0164,0.0164,0,0,0.0199,0.0211,0.0221,0.0242,0.0249,0.0268,0.0253,0.0268,0.0281,0.0249,0.0259,0.0241,0.022,0.0222,0.0218,0.0208,0.0219,0.0209,0.0213,0.0218,0.0216,0.0222,0.0227,0.0164,0.0164,0.0164,0,0,0.0222,0.023,0.0252,0.0263,0.0277,0.0283,0.0288,0.0296,0.0297,0.0306,0.0284,0.0274,0.0262,0.0251,0.0243,0.0263,0.0242,0.0254,0.0286,0.0285,0.029,0.0295,0.0291,0.0294,0.0255,0.0255,0.0256,0,0.0226,0.0258,0.026,0.0283,0.03,0.0291,0.0319,0.0322,0.0325,0.0329,0.0314,0.0302,0.0278,0.0285,0.0287,0.0274,0.0269,0.0271,0.0292,0.0296,0.03,0.0295,0.0298,0.0258,0.0258,0.0258,0.0257,0,0.0266,0.0289,0.0305,0.0332,0.0348,0.0371,0.0377,0.0385,0.0381,0.0379,0.0383,0.0358,0.0353,0.0338,0.0318,0.033,0.0317,0.03,0.0284,0.0309,0.0302,0.0304,0.0262,0.0261,0.026,0.026,0,0,0.029,0.0326,0.0333,0.0357,0.0378,0.0401,0.042,0.0442,0.0466,0.0446,0.0479,0.0443,0.0426,0.0416,0.039,0.038,0.0392,0.0352,0.035,0.0355,0.0392,0.0377,0.0378,0.0381,0.0381,0.0382,0.0378,0,0.0324,0.0378,0.0387,0.0441,0.0472,0.0473,0.0502,0.0512,0.0517,0.0542,0.0508,0.0525,0.0458,0.047,0.0445,0.0415,0.04,0.0394,0.036,0.0359,0.0349,0.0381,0.0384,0.0381,0.038,0.0381,0.0381,0,0.0367,0.0399,0.0457,0.0509,0.0524,0.0552,0.0603,0.0628,0.0643,0.0648,0.0642,0.0623,0.0608,0.0557,0.0502,0.0503,0.045,0.0414,0.0413,0.0383,0.0349,0.0354,0.0385,0.033,0.0384,0.0384,0.0384,0,0.04,0.0453,0.0504,0.0521,0.0572,0.0601,0.0632,0.0658,0.07,0.0727,0.0765,0.0724,0.0735,0.0661,0.0573,0.0546,0.0519,0.0473,0.0406,0.0404,0.0392,0.0388,0.0372,0.0435,0.0435,0.0435,0.0435,0,0.0445,0.0488,0.0524,0.0557,0.0625,0.0646,0.0724,0.0744,0.08,0.0869,0.0829,0.0882,0.0763,0.0731,0.0625,0.0533,0.0558,0.0423,0.0408,0.041,0.0408,0.0346,0.0303,0.0435,0.0435,0.0435,0.0435,0,0.0486,0.0505,0.0568,0.0624,0.0644,0.0698,0.079,0.0851,0.0893,0.0992,0.1014,0.1011,0.0972,0.0849,0.0743,0.0618,0.0483,0.0483,0.0492,0.0477,0.034,0.03,0.0255,0.0208,0.0403,0.0402,0.0402,0,0.0516,0.0551,0.0617,0.066,0.0691,0.0769,0.0833,0.0891,0.0968,0.1079,0.1141,0.1137,0.115,0.0986,0.0775,0.0598,0.0507,0.047,0.0405,0.0347,0.0291,0.026,0.0221,0.041,0.0409,0.0409,0.0409,0,0.0578,0.0595,0.0647,0.0728,0.0796,0.0879,0.0975,0.1044,0.1138,0.1228,0.1339,0.1363,0.1218,0.1047,0.0797,0.0658,0.0426,0.046,0.0404,0.0302,0.0265,0.0209,0.0395,0.0408,0.0408,0.0408,0.0408,0.0408,0.0623,0.0665,0.0726,0.0805,0.0885,0.0982,0.1052,0.1165,0.1292,0.1424,0.1458,0.1506,0.1278,0.0939,0.0759,0.0432,0.0414,0.0321,0.028,0.0257,0.0205,0.0387,0.0378,0.0378,0.0378,0.0378,0.0378,0,0.067,0.0719,0.0801,0.0892,0.0976,0.101,0.1146,0.1218,0.1359,0.149,0.1578,0.1492,0.1228,0.0932,0.0503,0.0295,0.0198,0.0191,0.0153,0.012,0.0293,0.0286,0.0254,0.0254,0.0254,0.0254,0.0254,0.0254,0.0699,0.0771,0.0807,0.0942,0.1012,0.1112,0.1178,0.1298,0.1404,0.1522,0.1554,0.157,0.1375,0.0725,0.0302,0.0186,0.0044,0.0012,-0.0056,0.007,0.0079,0.0088,0.0073,-0.0003,-0.0004,-0.021,-0.0212,-0.0213]}],[{"header":{"parameterUnit":"m.s-1","parameterCategory":2,"la1":30.2991,"la2":30.254,"lo1":-89.0895,"lo2":-89.0444,"dy":0.0017,"dx":0.0017,"nx":28,"ny":28,"refTime":"2024-05-21T09:00:00:Z","depth":"2","parameterNumber":2,"parameterNumberName":"U-component_of_CURRENTS"},"data":[0,0,0,0,0,0,0,0,0,0,0,0,0,0,0,0,0,0,0,0,0,0,0,0,0,0,0,0,0,0,0,0,0,0,0,0,0,0,0,0,0,0,0,0,0,0,0,0,0,0,0,0,0,0,0,0,0,0,0.1899,0.1899,0,0.1909,0.1909,0.1909,0.1888,0.1888,0.1887,0.1887,0.1938,0.1939,0.1941,0,0,0,0,0,0,0,0,0,0,0,0,0,0.1881,0.1881,0.1899,0.1899,0.1899,0.1909,0.1909,0.1909,0.1888,0.1888,0.1887,0.1887,0.1937,0.1939,0.1941,0,0,0,0,0,0,0,0,0,0,0,0,0,0.1888,0.1881,0.1899,0.1891,0.1891,0.1909,0.1909,0.1909,0.1889,0.1888,0.1887,0.1886,0.1936,0.1939,0.1942,0.1975,0,0,0.195,0.1951,0,0,0,0,0,0,0,0,0.1888,0.1889,0.1892,0.1892,0.1891,0.1898,0.1922,0.1934,0.1889,0.1888,0.1887,0.1886,0.193,0.1933,0.1934,0.1978,0.198,0.1951,0.1952,0.1953,0.1954,0,0,0,0,0,0,0,0.1887,0.1888,0.1901,0.1892,0.1892,0.1895,0.1894,0.1924,0.1913,0.1888,0.1887,0.1891,0.193,0.1931,0.1935,0.198,0.195,0.1953,0.1955,0.1956,0.2079,0.2081,0,0,0,0,0,0,0.1889,0.1888,0.1901,0.1902,0.1889,0.1896,0.1895,0.1895,0.1911,0.1913,0.1891,0.189,0.1927,0.1932,0.1937,0.1978,0.1953,0.1956,0.1958,0.2078,0.208,0.2081,0,0,0,0,0,0,0.1889,0.189,0.19,0.1896,0.1898,0.1897,0.1897,0.1896,0.1905,0.1914,0.1916,0.1902,0.1926,0.1933,0.198,0.198,0.1957,0.196,0.2076,0.2078,0.2081,0.2061,0,0,0,0,0,0,0.1888,0.189,0.19,0.1897,0.1898,0.1928,0.1898,0.1897,0.1909,0.1907,0.1924,0.1927,0.1926,0.1976,0.1983,0.1984,0.1962,0.2074,0.2077,0.208,0.206,0.2063,0.2065,0,0,0,0,0,0.1887,0.191,0.19,0.1903,0.1909,0.1929,0.1931,0.1926,0.191,0.1928,0.1939,0.1927,0.1999,0.198,0.1988,0.1989,0.2072,0.2076,0.208,0.2059,0.2062,0.2065,0,0,0,0,0,0,0.191,0.191,0.1899,0.192,0.1929,0.1927,0.1947,0.1936,0.1956,0.1957,0.1954,0.196,0.1996,0.2012,0.199,0.2038,0.2032,0.2037,0.2014,0.2017,0.202,0.2013,0.1964,0,0,0,0,0,0.1918,0.1935,0.1932,0.1952,0.1958,0.1952,0.1961,0.1956,0.1969,0.1975,0.1978,0.1996,0.2018,0.2033,0.2056,0.2092,0.2116,0.2099,0.2102,0.2104,0.2107,0.2149,0.2155,0.2093,0.2093,0.2093,0,0,0.1935,0.1937,0.1948,0.1959,0.1963,0.1972,0.1956,0.1978,0.1979,0.1981,0.1994,0.2009,0.2033,0.2061,0.2079,0.2073,0.2139,0.2108,0.2109,0.2112,0.2154,0.2159,0.2165,0.2096,0.2095,0.2095,0,0,0.197,0.1976,0.1995,0.2003,0.2015,0.2008,0.2016,0.2015,0.2013,0.2039,0.2029,0.205,0.2088,0.2089,0.21,0.2141,0.2152,0.215,0.2153,0.2194,0.2198,0.2203,0.2251,0.226,0.2148,0.2148,0.2148,0,0.1991,0.1999,0.2008,0.2022,0.2027,0.2022,0.2034,0.2036,0.2047,0.2053,0.2049,0.2091,0.2098,0.2125,0.2125,0.2142,0.2175,0.2129,0.2194,0.2199,0.2204,0.2252,0.2262,0.2148,0.2148,0.2148,0.2148,0,0.2018,0.2033,0.2051,0.2054,0.2068,0.2084,0.208,0.2092,0.2087,0.2082,0.2114,0.2126,0.2154,0.2148,0.2144,0.2177,0.2194,0.219,0.2176,0.2208,0.2258,0.2269,0.2147,0.2147,0.2147,0.2148,0,0,0.2038,0.2062,0.2065,0.2074,0.2082,0.2097,0.2109,0.2117,0.213,0.2137,0.2165,0.217,0.2176,0.2189,0.2186,0.22,0.2248,0.2204,0.2207,0.2236,0.2354,0.2276,0.2281,0.2255,0.2257,0.2258,0.2378,0,0.205,0.207,0.208,0.2107,0.2118,0.2126,0.2137,0.2149,0.216,0.219,0.2199,0.2234,0.2193,0.2218,0.2223,0.2255,0.2275,0.2217,0.2334,0.2338,0.225,0.2289,0.2073,0.2153,0.2388,0.239,0.2391,0,0.206,0.2072,0.2088,0.2127,0.2134,0.2151,0.2176,0.2193,0.2229,0.2246,0.2276,0.2294,0.2327,0.2293,0.2351,0.2321,0.2336,0.2346,0.2351,0.229,0.2278,0.216,0.2163,0.2409,0.2408,0.2406,0.2405,0,0.2045,0.2084,0.2092,0.2101,0.2135,0.2157,0.2182,0.221,0.223,0.23,0.2336,0.2374,0.2422,0.2441,0.2447,0.242,0.2513,0.2489,0.2433,0.2429,0.2273,0.2251,0.253,0.253,0.253,0.253,0.2529,0,0.204,0.2058,0.2093,0.2098,0.2127,0.2165,0.2201,0.2234,0.229,0.2321,0.2373,0.2407,0.246,0.2507,0.2499,0.2502,0.2566,0.2444,0.2453,0.2262,0.2239,0.2478,0.2471,0.2534,0.2533,0.2532,0.2531,0,0.2016,0.2036,0.2064,0.2105,0.2119,0.2149,0.2209,0.2236,0.2303,0.2358,0.2393,0.2468,0.253,0.2566,0.2622,0.2572,0.2583,0.2565,0.2338,0.2316,0.2464,0.2455,0.2532,0.253,0.2529,0.2528,0.2527,0,0.1999,0.2006,0.2051,0.2072,0.2095,0.214,0.2159,0.2227,0.2257,0.2368,0.2391,0.2492,0.2501,0.2567,0.2526,0.253,0.2577,0.2328,0.2214,0.2462,0.2465,0.2457,0.245,0.2018,0.2013,0.2009,0.2005,0,0.1977,0.1995,0.2017,0.2038,0.2072,0.2095,0.2141,0.2157,0.2239,0.2283,0.2337,0.2364,0.2423,0.2314,0.2329,0.2289,0.2308,0.2241,0.258,0.2036,0.1982,0.1983,0.1992,0.1968,0.1971,0.1974,0.1976,0.1978,0.1981,0.1968,0.1989,0.2009,0.2036,0.2032,0.2039,0.2062,0.208,0.2103,0.2197,0.2158,0.2166,0.206,0.199,0.1947,0.2107,0.1994,0.2005,0.2022,0.1926,0.187,0.1818,0.1821,0.1824,0.1826,0.1828,0,0.1937,0.1932,0.1952,0.1976,0.196,0.1987,0.2001,0.1959,0.1924,0.1935,0.1938,0.1752,0.1667,0.1691,0.1558,0.1545,0.151,0.1479,0.1415,0.1454,0.1489,0.1363,0.1109,0.1106,0.1104,0.1102,0,0,0.1929,0.1912,0.1889,0.1866,0.1878,0.184,0.182,0.1738,0.1705,0.1585,0.1531,0.1609,0.1643,0.1365,0.1317,0.1193,0.1313,0.1137,0.1716,0.1682,0.1713,0.1791,0.1642,0,0,0,0,0]},{"header":{"parameterUnit":"m.s-1","parameterCategory":2,"la1":30.2991,"la2":30.254,"lo1":-89.0895,"lo2":-89.0444,"dy":0.0017,"dx":0.0017,"nx":28,"ny":28,"refTime":"2024-05-21T09:00:00:Z","depth":"2","parameterNumber":3,"parameterNumberName":"V-component_of_CURRENTS"},"data":[0,0,0,0,0,0,0,0,0,0,0,0,0,0,0,0,0,0,0,0,0,0,0,0,0,0,0,0,0,0,0,0,0,0,0,0,0,0,0,0,0,0,0,0,0,0,0,0,0,0,0,0,0,0,0,0,0,0,0.0129,0.013,0,0.0153,0.0154,0.0154,0.0145,0.0144,0.0144,0.0143,0.0092,0.0091,0.009,0,0,0,0,0,0,0,0,0,0,0,0,0,0.0074,0.0075,0.0129,0.013,0.013,0.0153,0.0154,0.0154,0.0145,0.0144,0.0144,0.0143,0.0092,0.0091,0.009,0,0,0,0,0,0,0,0,0,0,0,0,0,0.0097,0.0075,0.0129,0.0129,0.0129,0.0153,0.0154,0.0154,0.0145,0.0144,0.0143,0.0143,0.0093,0.0092,0.009,0.0095,0,0,0.0086,0.0085,0,0,0,0,0,0,0,0,0.0096,0.0099,0.0129,0.0129,0.0129,0.0146,0.0115,0.0131,0.0145,0.0138,0.0143,0.0142,0.0104,0.0102,0.0108,0.0093,0.0091,0.0086,0.0085,0.0084,0.0084,0,0,0,0,0,0,0,0.0094,0.0098,0.0138,0.0129,0.013,0.0127,0.013,0.0119,0.0123,0.0138,0.0138,0.0143,0.0104,0.0109,0.0106,0.009,0.0086,0.0085,0.0084,0.0083,0.0072,0.0073,0,0,0,0,0,0,0.0094,0.0097,0.0137,0.0139,0.0112,0.0129,0.0132,0.0141,0.0124,0.0122,0.0143,0.0142,0.0112,0.0108,0.0104,0.0112,0.0084,0.0083,0.0082,0.0072,0.0072,0.0073,0,0,0,0,0,0,0.0093,0.0098,0.0136,0.0118,0.0123,0.0131,0.0141,0.0142,0.0148,0.0129,0.0125,0.0149,0.0111,0.0106,0.0102,0.0109,0.0082,0.0081,0.0071,0.0072,0.0073,0.0125,0,0,0,0,0,0,0.0091,0.0097,0.0104,0.0119,0.0124,0.0152,0.0142,0.0143,0.0152,0.0151,0.0132,0.0127,0.011,0.0105,0.0101,0.0107,0.008,0.007,0.0071,0.0072,0.0122,0.0127,0.0131,0,0,0,0,0,0.0089,0.0103,0.0104,0.0109,0.0133,0.0153,0.0156,0.0158,0.0153,0.016,0.0151,0.0128,0.0108,0.0105,0.01,0.0105,0.007,0.0071,0.0072,0.012,0.0126,0.0131,0,0,0,0,0,0,0.008,0.0104,0.0105,0.0124,0.0138,0.0152,0.016,0.0162,0.0163,0.0159,0.0139,0.0133,0.0132,0.0113,0.011,0.0105,0.0084,0.0084,0.0121,0.0127,0.0131,0.014,0.0079,0,0,0,0,0,0.0082,0.0099,0.0117,0.0132,0.014,0.0151,0.0159,0.0162,0.0166,0.0166,0.0156,0.0142,0.0134,0.0127,0.0116,0.0116,0.0099,0.0115,0.0119,0.0123,0.0128,0.0119,0.0124,0.0077,0.0077,0.0077,0,0,0.0083,0.0098,0.0107,0.0131,0.0142,0.0162,0.0154,0.017,0.0187,0.0159,0.0174,0.0159,0.0139,0.014,0.0137,0.0125,0.0127,0.0125,0.0128,0.013,0.0121,0.0126,0.013,0.0078,0.0078,0.0078,0,0,0.0098,0.0107,0.0128,0.0141,0.0161,0.017,0.0176,0.0193,0.02,0.0214,0.0197,0.0191,0.018,0.017,0.0162,0.0185,0.0153,0.0176,0.0205,0.0197,0.0201,0.0204,0.0187,0.0188,0.0177,0.0177,0.0177,0,0.0098,0.0127,0.0136,0.0159,0.0175,0.0175,0.0201,0.0211,0.0225,0.0233,0.0223,0.0217,0.0196,0.0201,0.0207,0.0195,0.0182,0.0187,0.0203,0.0206,0.0209,0.019,0.0191,0.0179,0.0179,0.0179,0.0179,0,0.0132,0.0152,0.0165,0.0197,0.0213,0.0233,0.025,0.0264,0.027,0.0275,0.0285,0.0267,0.0263,0.0252,0.0236,0.0243,0.0225,0.0212,0.0191,0.0217,0.0195,0.0195,0.0183,0.0182,0.0181,0.0181,0,0,0.0147,0.0183,0.0188,0.0213,0.0235,0.0259,0.0282,0.0309,0.0333,0.0331,0.0361,0.0339,0.0326,0.0317,0.0295,0.0283,0.0284,0.0257,0.0255,0.0243,0.0262,0.0232,0.0228,0.0276,0.0276,0.0277,0.0239,0,0.0174,0.0222,0.0232,0.028,0.031,0.0317,0.0345,0.0364,0.0375,0.0402,0.0381,0.0399,0.0352,0.036,0.0339,0.0304,0.0286,0.0295,0.0236,0.0234,0.0207,0.0228,0.0244,0.0211,0.0239,0.0238,0.0238,0,0.0212,0.024,0.0287,0.0336,0.035,0.0378,0.0425,0.0452,0.0472,0.0481,0.0481,0.0468,0.0456,0.0421,0.0362,0.0371,0.032,0.0285,0.0282,0.0236,0.0204,0.019,0.0209,0.0238,0.0238,0.0238,0.0238,0,0.0237,0.0286,0.0326,0.0341,0.0388,0.0418,0.045,0.0476,0.0516,0.0542,0.0572,0.0537,0.0549,0.0478,0.0398,0.0385,0.0332,0.0305,0.0227,0.0223,0.0216,0.0211,0.0264,0.0264,0.0264,0.0264,0.0264,0,0.027,0.0307,0.0345,0.0371,0.0432,0.0457,0.0525,0.0547,0.0594,0.0651,0.0622,0.0658,0.0567,0.0525,0.0428,0.0329,0.0353,0.0236,0.0216,0.0233,0.0231,0.0237,0.0234,0.0263,0.0263,0.0263,0.0264,0,0.0293,0.0315,0.0373,0.0426,0.0448,0.05,0.0587,0.0635,0.0673,0.0753,0.0773,0.076,0.0703,0.0595,0.0488,0.0383,0.0283,0.024,0.0261,0.0244,0.0167,0.0168,0.0146,0.0144,0.0143,0.0143,0.0142,0,0.0309,0.0337,0.0408,0.0454,0.0484,0.0561,0.0613,0.067,0.0729,0.0817,0.0858,0.0839,0.0816,0.0638,0.0474,0.0303,0.0279,0.0191,0.0162,0.0174,0.0157,0.0159,0.0161,0.0171,0.0171,0.017,0.017,0,0.0339,0.0362,0.0407,0.0482,0.0552,0.0635,0.072,0.0777,0.0855,0.0923,0.099,0.0982,0.0838,0.067,0.0441,0.032,0.0215,0.0176,0.0201,0.0196,0.0194,0.0179,0.0181,0.0167,0.0167,0.0167,0.0168,0.0168,0.0368,0.0392,0.0441,0.0519,0.0593,0.0687,0.0769,0.0847,0.0941,0.1034,0.1049,0.1037,0.0872,0.0568,0.0381,0.0189,0.02,0.0109,0.0113,0.0116,0.0122,0.0119,0.0078,0.0078,0.0077,0.0077,0.0077,0,0.0389,0.0416,0.0478,0.0568,0.0632,0.0685,0.0817,0.0884,0.0982,0.1053,0.1098,0.0929,0.0762,0.0571,0.0298,0.012,0.0111,0.0044,0.0083,0.0088,0.0092,0.0098,0.0047,0.0046,0.0045,0.0045,0,0,0.0408,0.0449,0.0461,0.0561,0.0636,0.0738,0.0819,0.0907,0.0975,0.1016,0.1023,0.1022,0.0812,0.0596,0.0373,0.0216,0.0182,0.017,0.0215,0.0292,0.0298,0.0151,0.0169,0,0,0,0,0]}],[{"header":{"parameterUnit":"m.s-1","parameterCategory":2,"la1":30.2991,"la2":30.254,"lo1":-89.0895,"lo2":-89.0444,"dy":0.0017,"dx":0.0017,"nx":28,"ny":28,"refTime":"2024-05-21T09:00:00:Z","depth":"4","parameterNumber":2,"parameterNumberName":"U-component_of_CURRENTS"},"data":[0,0,0,0,0,0,0,0,0,0,0,0,0,0,0,0,0,0,0,0,0,0,0,0,0,0,0,0,0,0,0,0,0,0,0,0,0,0,0,0,0,0,0,0,0,0,0,0,0,0,0,0,0,0,0,0,0,0,0.1177,0.1178,0,0.1242,0.1243,0.1244,0.1299,0.13,0.13,0.1301,0.1302,0.1302,0.1301,0,0,0,0,0,0,0,0,0,0,0,0,0,0.1142,0.1142,0.1177,0.1178,0.1179,0.1242,0.1243,0.1244,0.1299,0.13,0.1301,0.1301,0.1303,0.1302,0.1301,0,0,0,0,0,0,0,0,0,0,0,0,0,0.1177,0.1142,0.1177,0.1214,0.1218,0.1242,0.1243,0.1244,0.1299,0.13,0.1301,0.1302,0.1303,0.1302,0.1301,0.1277,0,0,0.1299,0.1298,0,0,0,0,0,0,0,0,0.1175,0.1178,0.1208,0.1212,0.1216,0.1264,0.1231,0.1252,0.1299,0.1268,0.1301,0.1302,0.1283,0.1284,0.1295,0.1277,0.1277,0.1299,0.1298,0.1298,0.1297,0,0,0,0,0,0,0,0.1172,0.1176,0.1203,0.1209,0.1214,0.1242,0.1247,0.1236,0.1268,0.1271,0.1275,0.1282,0.1285,0.1295,0.1295,0.1277,0.1299,0.1298,0.1297,0.1297,0.135,0.1352,0,0,0,0,0,0,0.1161,0.1173,0.1201,0.1205,0.1198,0.1242,0.1248,0.1247,0.127,0.1275,0.1281,0.1285,0.1296,0.1296,0.1295,0.1348,0.1298,0.1297,0.1296,0.1348,0.135,0.1352,0,0,0,0,0,0,0.116,0.1163,0.1198,0.1191,0.1198,0.1241,0.124,0.1248,0.1286,0.1279,0.1282,0.1314,0.1297,0.1296,0.1318,0.1345,0.1297,0.1296,0.1346,0.1349,0.1351,0.1402,0,0,0,0,0,0,0.1159,0.1162,0.1171,0.119,0.1198,0.1224,0.124,0.1249,0.1287,0.1293,0.1306,0.1307,0.1298,0.132,0.1317,0.1343,0.1295,0.1343,0.1347,0.135,0.1398,0.1407,0.1414,0,0,0,0,0,0.1157,0.1158,0.1171,0.1175,0.1204,0.1225,0.1232,0.1266,0.1288,0.1304,0.1326,0.1308,0.1341,0.132,0.1317,0.1344,0.1342,0.1346,0.135,0.1395,0.1405,0.1414,0,0,0,0,0,0,0.115,0.1164,0.1179,0.1185,0.1211,0.1235,0.1254,0.1279,0.131,0.132,0.1321,0.1323,0.1356,0.1344,0.1322,0.1374,0.1342,0.1346,0.1377,0.1387,0.1394,0.1398,0.1294,0,0,0,0,0,0.115,0.1154,0.1177,0.1186,0.1198,0.1233,0.1251,0.1273,0.1297,0.1315,0.1334,0.1353,0.1366,0.1373,0.1381,0.1397,0.1395,0.1418,0.1426,0.1433,0.1436,0.1465,0.1475,0.1367,0.1366,0.1366,0,0,0.115,0.1159,0.1163,0.1185,0.1208,0.1229,0.1247,0.1276,0.1309,0.1305,0.1363,0.1377,0.1378,0.1409,0.1423,0.1404,0.1464,0.1438,0.1443,0.1443,0.1471,0.1481,0.149,0.1369,0.1369,0.1368,0,0,0.1147,0.116,0.1166,0.1185,0.1218,0.1238,0.1253,0.1296,0.1334,0.1381,0.1394,0.1429,0.1454,0.1465,0.1469,0.1522,0.1505,0.1532,0.1568,0.1597,0.1605,0.1613,0.1623,0.1632,0.1534,0.1534,0.1534,0,0.1154,0.1158,0.1174,0.1186,0.1207,0.1245,0.1266,0.1303,0.1357,0.1393,0.1408,0.1481,0.1481,0.1515,0.1543,0.1538,0.1548,0.1528,0.1605,0.1613,0.162,0.1629,0.1637,0.1537,0.1536,0.1536,0.1536,0,0.1148,0.1165,0.1171,0.1198,0.1223,0.1244,0.1291,0.1341,0.1397,0.1439,0.1512,0.1531,0.1575,0.1586,0.158,0.1633,0.1623,0.1611,0.1576,0.1633,0.1639,0.1647,0.1541,0.154,0.1539,0.1538,0,0,0.1129,0.1162,0.1167,0.1188,0.1232,0.1251,0.1312,0.1376,0.1426,0.1499,0.1567,0.1613,0.1644,0.1652,0.1657,0.1683,0.1741,0.1676,0.1676,0.1677,0.1801,0.167,0.1665,0.1748,0.1749,0.1751,0.1785,0,0.1128,0.115,0.1169,0.1207,0.1227,0.1279,0.1329,0.1395,0.1464,0.154,0.1594,0.1653,0.1662,0.1689,0.1723,0.1737,0.1765,0.1732,0.1754,0.1754,0.1623,0.1671,0.1756,0.1791,0.1792,0.1794,0.1794,0,0.1116,0.1136,0.1168,0.1222,0.1236,0.127,0.1359,0.1407,0.151,0.1568,0.1646,0.169,0.1757,0.1751,0.1818,0.1802,0.1812,0.1818,0.1819,0.1682,0.1637,0.1723,0.1808,0.1807,0.1806,0.1805,0.1804,0,0.1091,0.1136,0.1164,0.118,0.1244,0.1287,0.1334,0.1427,0.148,0.1592,0.1645,0.173,0.1778,0.1821,0.1852,0.1848,0.1907,0.1895,0.1785,0.1776,0.186,0.1851,0.194,0.194,0.194,0.1939,0.1939,0,0.1067,0.1094,0.1162,0.1174,0.1225,0.1278,0.1344,0.1411,0.1503,0.1557,0.1658,0.1708,0.1803,0.185,0.1869,0.1846,0.1925,0.1796,0.1779,0.1881,0.1875,0.1865,0.1856,0.1941,0.194,0.194,0.194,0,0.1024,0.1066,0.1105,0.1181,0.1213,0.125,0.1342,0.1383,0.1481,0.1555,0.1596,0.1714,0.1774,0.1835,0.1893,0.1846,0.1845,0.1814,0.1916,0.1903,0.1693,0.1687,0.17,0.1695,0.1692,0.1689,0.1686,0,0.0998,0.1015,0.1101,0.1125,0.1163,0.1229,0.127,0.1371,0.1407,0.1542,0.1562,0.1666,0.1731,0.1708,0.1781,0.1796,0.1776,0.1753,0.1729,0.1688,0.1671,0.167,0.1669,0.168,0.1679,0.1678,0.1678,0,0.0949,0.099,0.1018,0.1072,0.1121,0.1162,0.1228,0.1247,0.1353,0.1457,0.1496,0.1535,0.1589,0.1635,0.1647,0.1659,0.1757,0.1715,0.1723,0.17,0.1665,0.1651,0.1654,0.1665,0.1667,0.1668,0.1669,0,0.0918,0.0922,0.0966,0.1002,0.1058,0.1074,0.112,0.1157,0.1208,0.135,0.136,0.1471,0.1572,0.1563,0.1582,0.1575,0.156,0.15,0.1519,0.1533,0.1462,0.1393,0.1297,0,0,0,0,0,0.0883,0.0872,0.0891,0.0915,0.0962,0.0997,0.1078,0.1122,0.1229,0.1217,0.1283,0.1331,0.1369,0.1428,0.1391,0.1513,0.1565,0.1461,0.1505,0.1595,0.161,0.1541,0,0,0,0,0,0,0.0856,0.0871,0.086,0.0833,0.0835,0.0874,0.0926,0.0997,0.0994,0.1114,0.1146,0.1234,0.1297,0.1375,0.136,0.1376,0.1371,0.153,0.1526,0.1587,0.16,0.1612,0.1546,0,0,0,0,0]},{"header":{"parameterUnit":"m.s-1","parameterCategory":2,"la1":30.2991,"la2":30.254,"lo1":-89.0895,"lo2":-89.0444,"dy":0.0017,"dx":0.0017,"nx":28,"ny":28,"refTime":"2024-05-21T09:00:00:Z","depth":"4","parameterNumber":3,"parameterNumberName":"V-component_of_CURRENTS"},"data":[0,0,0,0,0,0,0,0,0,0,0,0,0,0,0,0,0,0,0,0,0,0,0,0,0,0,0,0,0,0,0,0,0,0,0,0,0,0,0,0,0,0,0,0,0,0,0,0,0,0,0,0,0,0,0,0,0,0,0.0082,0.0082,0,0.0107,0.0107,0.0107,0.0101,0.0101,0.01,0.01,0.007,0.007,0.007,0,0,0,0,0,0,0,0,0,0,0,0,0,0.0028,0.0029,0.0082,0.0082,0.0083,0.0107,0.0107,0.0107,0.0101,0.0101,0.01,0.01,0.007,0.007,0.007,0,0,0,0,0,0,0,0,0,0,0,0,0,0.0052,0.003,0.0082,0.0083,0.0083,0.0107,0.0107,0.0107,0.0101,0.0101,0.01,0.01,0.0071,0.007,0.0069,0.0079,0,0,0.0068,0.0068,0,0,0,0,0,0,0,0,0.0051,0.0054,0.0082,0.0083,0.0083,0.01,0.0077,0.0095,0.0102,0.0094,0.01,0.0099,0.0076,0.0075,0.0081,0.0078,0.0077,0.0068,0.0067,0.0067,0.0067,0,0,0,0,0,0,0,0.0049,0.0053,0.0091,0.0083,0.0083,0.0082,0.0084,0.0081,0.0087,0.0095,0.0095,0.0098,0.0076,0.0082,0.0081,0.0076,0.0068,0.0067,0.0067,0.0067,0.0071,0.0071,0,0,0,0,0,0,0.0048,0.0052,0.0091,0.0092,0.0065,0.0083,0.0086,0.0095,0.0089,0.0087,0.0099,0.0098,0.0083,0.0081,0.0079,0.0089,0.0067,0.0067,0.0066,0.0071,0.0071,0.0072,0,0,0,0,0,0,0.0047,0.0051,0.009,0.0072,0.0077,0.0085,0.0095,0.0096,0.0103,0.0092,0.009,0.0104,0.0083,0.008,0.0083,0.0087,0.0066,0.0066,0.007,0.0071,0.0071,0.0108,0,0,0,0,0,0,0.0045,0.0051,0.0057,0.0072,0.0078,0.0105,0.0096,0.0097,0.0106,0.0105,0.0096,0.0093,0.0082,0.0084,0.0083,0.0086,0.0065,0.007,0.007,0.0071,0.0106,0.011,0.0113,0,0,0,0,0,0.0043,0.0057,0.0058,0.0062,0.0087,0.0106,0.0109,0.0111,0.0107,0.0114,0.011,0.0093,0.0088,0.0085,0.0082,0.0086,0.0069,0.007,0.0071,0.0105,0.0109,0.0113,0,0,0,0,0,0,0.0038,0.0059,0.0059,0.0079,0.0091,0.0105,0.0113,0.0115,0.012,0.0117,0.0104,0.0101,0.0104,0.0092,0.0089,0.0089,0.0073,0.0074,0.01,0.0104,0.0107,0.0109,0.0065,0,0,0,0,0,0.004,0.0056,0.0072,0.0087,0.0094,0.0104,0.0112,0.0115,0.0121,0.0123,0.0119,0.0111,0.0108,0.0104,0.0099,0.0103,0.0083,0.0102,0.0106,0.0109,0.0109,0.0093,0.0095,0.0075,0.0075,0.0075,0,0,0.0042,0.0056,0.0065,0.0087,0.0097,0.0112,0.0107,0.0123,0.0135,0.0118,0.0133,0.0125,0.0112,0.0117,0.0116,0.0107,0.0102,0.011,0.0113,0.0111,0.0094,0.0096,0.0097,0.0076,0.0076,0.0075,0,0,0.0055,0.0067,0.0083,0.0095,0.0111,0.012,0.0125,0.0141,0.0148,0.0162,0.0151,0.0149,0.0147,0.014,0.0135,0.0154,0.0122,0.0149,0.0166,0.0151,0.0152,0.0153,0.0122,0.012,0.0149,0.0149,0.0149,0,0.0056,0.0079,0.009,0.0106,0.0118,0.0124,0.014,0.0152,0.0167,0.0172,0.0169,0.0169,0.0158,0.016,0.0166,0.0161,0.0142,0.0152,0.0155,0.0156,0.0156,0.0124,0.0121,0.0151,0.0151,0.0151,0.015,0,0.0079,0.0095,0.0107,0.0129,0.0142,0.0159,0.0175,0.0187,0.0195,0.0201,0.021,0.0203,0.0199,0.0196,0.0188,0.0186,0.0167,0.0163,0.0145,0.016,0.0125,0.0122,0.0154,0.0153,0.0152,0.0152,0,0,0.0088,0.0118,0.0121,0.0133,0.0156,0.0171,0.0192,0.0212,0.0224,0.0234,0.0246,0.0244,0.0237,0.0231,0.0219,0.0207,0.0191,0.0188,0.0186,0.0156,0.0144,0.0128,0.0122,0.0188,0.0188,0.0187,0.0115,0,0.0103,0.0134,0.0146,0.0174,0.0191,0.0202,0.0222,0.0238,0.0249,0.0262,0.0256,0.0263,0.0251,0.025,0.0238,0.0205,0.0184,0.021,0.0133,0.013,0.0115,0.0119,0.0187,0.0112,0.0111,0.0111,0.011,0,0.0123,0.0141,0.017,0.0197,0.0206,0.0224,0.0252,0.027,0.0284,0.0291,0.0294,0.0288,0.0277,0.0266,0.0216,0.0232,0.019,0.0161,0.0158,0.0128,0.0109,0.0095,0.0103,0.0104,0.0104,0.0105,0.0105,0,0.0125,0.0158,0.0181,0.0192,0.0223,0.0239,0.0257,0.0277,0.0299,0.0309,0.032,0.0303,0.0298,0.0254,0.0198,0.0206,0.0132,0.0133,0.0075,0.0072,0.0092,0.0091,0.0091,0.0091,0.0091,0.0091,0.0091,0,0.0137,0.0156,0.0186,0.0199,0.023,0.0248,0.0281,0.0295,0.032,0.0346,0.0336,0.0347,0.0296,0.0253,0.0198,0.0123,0.0129,0.0074,0.0056,0.0107,0.011,0.0088,0.0089,0.0088,0.0089,0.0089,0.009,0,0.0135,0.0155,0.0182,0.0217,0.0233,0.0254,0.0303,0.0327,0.0346,0.038,0.0386,0.0374,0.0323,0.0255,0.0172,0.0122,0.005,0.0017,0.0063,0.0048,-0.0002,0.0001,-0.005,-0.0051,-0.0052,-0.0053,-0.0053,0,0.0137,0.015,0.0192,0.0212,0.0231,0.027,0.03,0.0337,0.0367,0.04,0.0416,0.038,0.0362,0.0232,0.0155,0.0033,0.0019,-0.0034,-0.0002,-0.0002,-0.0015,-0.001,-0.0006,-0.0055,-0.0055,-0.0055,-0.0055,0,0.0135,0.0148,0.0169,0.0212,0.0249,0.0294,0.0342,0.0367,0.0413,0.0431,0.0446,0.0395,0.033,0.0238,0.0132,0.0051,-0.0004,-0.0043,-0.0042,-0.0012,-0.0009,-0.002,-0.0014,-0.0059,-0.0058,-0.0058,-0.0058,0,0.0132,0.0142,0.0171,0.0212,0.0258,0.031,0.0337,0.0382,0.0416,0.0459,0.0458,0.0406,0.0376,0.0245,0.0155,0.0065,0.0051,0.002,0.0018,0.002,0.0066,0.0081,0.0042,0,0,0,0,0,0.013,0.0145,0.0173,0.022,0.0266,0.03,0.0363,0.0389,0.0436,0.0451,0.0462,0.041,0.0297,0.0248,0.0158,0.0124,0.0019,0.0012,-0.0022,-0.0076,-0.0073,-0.0032,0,0,0,0,0,0,0.0129,0.0151,0.0166,0.0223,0.0256,0.0315,0.0359,0.039,0.0404,0.0436,0.038,0.0372,0.0259,0.0348,0.0151,0.0125,0.0087,-0.0035,-0.0037,-0.0078,-0.0075,-0.0072,-0.0029,0,0,0,0,0]}]]